Regional Weather Roundup
Issued by NWS

Home | Current Version | Previous Version | Text Only | Print | Product List | Glossary On
Versions: 1 2 3 4 5 6 7 8 9 10 11 12 13 14 15 16 17 18 19 20 21 22 23 24 25 26 27 28 29 30 31 32 33 34 35 36 37 38 39 40 41 42 43 44 45 46 47 48 49 50
000
ASCA42 TJSJ 181210
RWRPR
PUERTO RICO/U.S. VIRGIN ISLANDS HOURLY WEATHER ROUNDUP
NATIONAL WEATHER SERVICE SAN JUAN PR
800 AM AST THU JAN 18 2018

PRZ001>002-007>008-010-181300-
PUERTO RICO

CITY           SKY/WX    TMP DP  RH WIND       PRES   REMARKS
SAN JUAN LMM   MOSUNNY   77  72  83 CALM      30.03R
AGUADILLA      SUNNY     72  66  83 E6        30.04R
$$

VIZ001>002-181300-
U.S. VIRGIN ISLANDS

CITY           SKY/WX    TMP DP  RH WIND       PRES   REMARKS
CHARLOTTE AMA  SUNNY     75  75 100 E6        30.02R
CHRISTIANSTED  MOSUNNY   73  72  94 N5        30.03R
$$

HOURLY WEATHER ROUNDUP FOR THE NEWS MEDIA

CITY           SKY/WX    TMP DP  RH WIND       PRES   REMARKS
ORLANDO        FAIR      28  15  58 NW8       30.37R WCI  20
NEW YORK       FAIR      19   9  65 NW6       30.10R WCI  11
NEWARK         FAIR      19   8  62 SW10      30.10R WCI   7
CHICAGO        FAIR      17   9  70 SW14G21   30.14F WCI   3
HARTFORD       FAIR      25  23  92 VRB5      29.95F WCI  19
BOSTON         FAIR      24  15  68 W7        29.98F WCI  16
DALLAS         CLOUDY    23  11  60 S3        30.54F
PHILADELPHIA   FAIR      19   6  57 W6        30.15R WCI  11
LOS ANGELES    PTCLDY    57  49  74 CALM      30.07F
WASHINGTON DC  FAIR      20   5  52 NW14G22   30.19R WCI   7


USA.gov is the U.S. government's official web portal to all federal, state and local government web resources and services.